Year,Month,Day,Hour,Minute,Value (Times are PST for temperature in C)
2011,06,21,00,02,13.80
2011,06,21,00,03,13.80
2011,06,21,00,05,13.80
2011,06,21,00,06,13.70
2011,06,21,00,07,13.70
2011,06,21,00,08,13.70
2011,06,21,00,09,13.70
2011,06,21,00,11,13.70
2011,06,21,00,12,13.70
2011,06,21,00,14,13.70
2011,06,21,00,15,13.70
2011,06,21,00,16,13.70
2011,06,21,00,17,13.70
2011,06,21,00,18,13.60
2011,06,21,00,20,13.60
2011,06,21,00,21,13.60
2011,06,21,00,22,13.60
2011,06,21,00,23,13.60
2011,06,21,00,24,13.60
2011,06,21,00,25,13.60
2011,06,21,00,26,13.50
2011,06,21,00,27,13.50
2011,06,21,00,28,13.50
2011,06,21,00,30,13.50
2011,06,21,00,31,13.50
2011,06,21,00,32,13.50
2011,06,21,00,33,13.50
2011,06,21,00,35,13.40
2011,06,21,00,36,13.40
2011,06,21,00,37,13.40
2011,06,21,00,38,13.40
2011,06,21,00,40,13.40
2011,06,21,00,41,13.30
2011,06,21,00,42,13.30
2011,06,21,00,43,13.30
2011,06,21,00,44,13.30
2011,06,21,00,45,13.30
2011,06,21,00,46,13.30
2011,06,21,00,47,13.20
2011,06,21,00,48,13.20
2011,06,21,00,49,13.20
2011,06,21,00,50,13.20
2011,06,21,00,51,13.10
2011,06,21,00,52,13.10
2011,06,21,00,54,13.10
2011,06,21,00,55,13.10
2011,06,21,00,56,13.00
2011,06,21,00,57,13.00
2011,06,21,00,59,13.00
2011,06,21,01,00,13.00
2011,06,21,01,01,12.90
2011,06,21,01,02,12.90
2011,06,21,01,03,12.90
2011,06,21,01,04,12.90
2011,06,21,01,05,12.90
2011,06,21,01,06,12.90
2011,06,21,01,07,12.90
2011,06,21,01,09,12.90
2011,06,21,01,10,12.80
2011,06,21,01,11,12.80
2011,06,21,01,13,12.80
2011,06,21,01,15,12.80
2011,06,21,01,16,12.80
2011,06,21,01,17,12.80
2011,06,21,01,18,12.80
2011,06,21,01,19,12.70
2011,06,21,01,21,12.70
2011,06,21,01,22,12.70
2011,06,21,01,23,12.70
2011,06,21,01,25,12.70
2011,06,21,01,26,12.70
2011,06,21,01,27,12.70
2011,06,21,01,29,12.70
2011,06,21,01,30,12.70
2011,06,21,01,31,12.70
2011,06,21,01,32,12.70
2011,06,21,01,33,12.70
2011,06,21,01,35,12.70
2011,06,21,01,36,12.70
2011,06,21,01,37,12.60
2011,06,21,01,38,12.60
2011,06,21,01,39,12.60
2011,06,21,01,41,12.60
2011,06,21,01,42,12.50
2011,06,21,01,43,12.40
2011,06,21,01,44,12.40
2011,06,21,01,45,12.40
2011,06,21,01,47,12.40
2011,06,21,01,48,12.30
2011,06,21,01,49,12.30
2011,06,21,01,51,12.30
2011,06,21,01,52,12.30
2011,06,21,01,53,12.30
2011,06,21,01,55,12.30
2011,06,21,01,56,12.20
2011,06,21,01,57,12.20
2011,06,21,01,59,12.20
2011,06,21,02,00,12.20
2011,06,21,02,01,12.20
2011,06,21,02,02,12.10
2011,06,21,02,04,12.10
2011,06,21,02,05,12.10
2011,06,21,02,06,12.10
2011,06,21,02,07,12.10
2011,06,21,02,09,12.10
2011,06,21,02,10,12.10
2011,06,21,02,11,12.10
2011,06,21,02,12,12.10
2011,06,21,02,13,12.10
2011,06,21,02,15,12.10
2011,06,21,02,16,12.10
2011,06,21,02,17,12.10
2011,06,21,02,19,12.10
2011,06,21,02,20,12.00
2011,06,21,02,21,12.00
2011,06,21,02,22,12.00
2011,06,21,02,24,11.90
2011,06,21,02,25,11.90
2011,06,21,02,26,11.90
2011,06,21,02,27,11.90
2011,06,21,02,28,11.90
2011,06,21,02,30,11.90
2011,06,21,02,31,11.90
2011,06,21,02,32,11.80
2011,06,21,02,33,11.80
2011,06,21,02,34,11.80
2011,06,21,02,35,11.80
2011,06,21,02,36,11.80
2011,06,21,02,37,11.80
2011,06,21,02,38,11.80
2011,06,21,02,40,11.80
2011,06,21,02,41,11.70
2011,06,21,02,42,11.70
2011,06,21,02,43,11.70
2011,06,21,02,45,11.70
2011,06,21,02,46,11.70
2011,06,21,02,47,11.70
2011,06,21,02,48,11.70
2011,06,21,02,50,11.70
2011,06,21,02,51,11.70
2011,06,21,02,52,11.60
2011,06,21,02,53,11.60
2011,06,21,02,54,11.60
2011,06,21,02,56,11.60
2011,06,21,02,57,11.60
2011,06,21,02,58,11.60
2011,06,21,03,00,11.60
2011,06,21,03,01,11.50
2011,06,21,03,02,11.50
2011,06,21,03,03,11.40
2011,06,21,03,05,11.40
2011,06,21,03,06,11.40
2011,06,21,03,07,11.40
2011,06,21,03,08,11.40
2011,06,21,03,10,11.30
2011,06,21,03,11,11.30
2011,06,21,03,12,11.30
2011,06,21,03,13,11.30
2011,06,21,03,15,11.20
2011,06,21,03,16,11.20
2011,06,21,03,17,11.20
2011,06,21,03,18,11.20
2011,06,21,03,20,11.20
2011,06,21,03,21,11.10
2011,06,21,03,22,11.10
2011,06,21,03,23,11.10
2011,06,21,03,24,11.10
2011,06,21,03,25,11.10
2011,06,21,03,26,11.00
2011,06,21,03,27,11.00
2011,06,21,03,30,10.90
2011,06,21,03,31,10.90
2011,06,21,03,32,10.90
2011,06,21,03,33,10.90
2011,06,21,03,34,10.90
2011,06,21,03,35,10.90
2011,06,21,03,36,10.90
2011,06,21,03,37,10.90
2011,06,21,03,39,10.90
2011,06,21,03,40,10.80
2011,06,21,03,41,10.80
2011,06,21,03,42,10.80
2011,06,21,03,44,10.70
2011,06,21,03,45,10.70
2011,06,21,03,46,10.60
2011,06,21,03,47,10.60
2011,06,21,03,49,10.60
2011,06,21,03,50,10.50
2011,06,21,03,51,10.50
2011,06,21,03,52,10.40
2011,06,21,03,53,10.40
2011,06,21,03,55,10.40
2011,06,21,03,56,10.30
2011,06,21,03,57,10.30
2011,06,21,03,58,10.30
2011,06,21,03,59,10.30
2011,06,21,04,00,10.30
2011,06,21,04,01,10.30
2011,06,21,04,02,10.30
2011,06,21,04,03,10.30
2011,06,21,04,05,10.30
2011,06,21,04,06,10.20
2011,06,21,04,07,10.20
2011,06,21,04,09,10.20
2011,06,21,04,10,10.20
2011,06,21,04,11,10.20
2011,06,21,04,13,10.20
2011,06,21,04,14,10.20
2011,06,21,04,15,10.20
2011,06,21,04,16,10.20
2011,06,21,04,18,10.20
2011,06,21,04,19,10.20
2011,06,21,04,20,10.20
2011,06,21,04,21,10.20
2011,06,21,04,22,10.20
2011,06,21,04,23,10.10
2011,06,21,04,24,10.10
2011,06,21,04,25,10.10
2011,06,21,04,26,10.10
2011,06,21,04,27,10.10
2011,06,21,04,28,10.10
2011,06,21,04,29,10.10
2011,06,21,04,30,10.10
2011,06,21,04,32,10.10
2011,06,21,04,33,10.10
2011,06,21,04,34,10.10
2011,06,21,04,35,10.10
2011,06,21,04,36,10.10
2011,06,21,04,38,10.10
2011,06,21,04,39,10.10
2011,06,21,04,40,10.20
2011,06,21,04,41,10.20
2011,06,21,04,43,10.20
2011,06,21,04,44,10.20
2011,06,21,04,45,10.20
2011,06,21,04,46,10.20
2011,06,21,04,48,10.10
2011,06,21,04,49,10.10
2011,06,21,04,50,10.10
2011,06,21,04,51,10.10
2011,06,21,04,53,10.10
2011,06,21,04,54,10.00
2011,06,21,04,55,10.00
2011,06,21,04,56,10.00
2011,06,21,04,57,10.00
2011,06,21,04,58,10.00
2011,06,21,04,59,10.00
2011,06,21,05,00,10.00
2011,06,21,05,01,10.00
2011,06,21,05,02,10.00
2011,06,21,05,04,10.00
2011,06,21,05,05,10.00
2011,06,21,05,06,10.00
2011,06,21,05,07,10.00
2011,06,21,05,08,10.00
2011,06,21,05,09,9.90
2011,06,21,05,10,9.90
2011,06,21,05,11,9.90
2011,06,21,05,12,9.90
2011,06,21,05,14,9.90
2011,06,21,05,15,9.90
2011,06,21,05,16,9.90
2011,06,21,05,18,9.90
2011,06,21,05,19,9.90
2011,06,21,05,20,9.90
2011,06,21,05,21,9.90
2011,06,21,05,22,9.90
2011,06,21,05,24,9.90
2011,06,21,05,25,9.90
2011,06,21,05,26,9.90
2011,06,21,05,27,9.90
2011,06,21,05,29,9.90
2011,06,21,05,30,9.90
2011,06,21,05,31,9.90
2011,06,21,05,32,9.90
2011,06,21,05,33,9.90
2011,06,21,05,34,9.90
2011,06,21,05,35,9.90
2011,06,21,05,36,9.90
2011,06,21,05,38,9.90
2011,06,21,05,39,9.90
2011,06,21,05,40,9.80
2011,06,21,05,41,9.80
2011,06,21,05,43,9.80
2011,06,21,05,44,9.80
2011,06,21,05,45,9.80
2011,06,21,05,46,9.80
2011,06,21,05,48,9.80
2011,06,21,05,49,9.80
2011,06,21,05,50,9.80
2011,06,21,05,51,9.80
2011,06,21,05,52,9.80
2011,06,21,05,53,9.80
2011,06,21,05,54,9.80
2011,06,21,05,55,9.80
2011,06,21,05,56,9.80
2011,06,21,05,57,9.80
2011,06,21,05,59,9.80
2011,06,21,06,00,9.80
2011,06,21,06,01,9.80
2011,06,21,06,02,9.70
2011,06,21,06,04,9.80
2011,06,21,06,05,9.70
2011,06,21,06,06,9.70
2011,06,21,06,07,9.70
2011,06,21,06,08,9.70
2011,06,21,06,10,9.70
2011,06,21,06,11,9.80
2011,06,21,06,12,9.70
2011,06,21,06,13,9.70
2011,06,21,06,15,9.80
2011,06,21,06,16,9.80
2011,06,21,06,17,9.80
2011,06,21,06,18,9.80
2011,06,21,06,19,9.80
2011,06,21,06,20,9.80
2011,06,21,06,21,9.80
2011,06,21,06,22,9.80
2011,06,21,06,23,9.80
2011,06,21,06,24,9.90
2011,06,21,06,26,9.90
2011,06,21,06,27,9.90
2011,06,21,06,28,9.90
2011,06,21,06,29,10.00
2011,06,21,06,30,10.00
2011,06,21,06,32,10.00
2011,06,21,06,33,10.10
2011,06,21,06,34,10.10
2011,06,21,06,36,10.10
2011,06,21,06,37,10.10
2011,06,21,06,38,10.10
2011,06,21,06,39,10.10
2011,06,21,06,40,10.10
2011,06,21,06,41,10.20
2011,06,21,06,42,10.20
2011,06,21,06,43,10.20
2011,06,21,06,45,10.20
2011,06,21,06,46,10.20
2011,06,21,06,47,10.30
2011,06,21,06,48,10.30
2011,06,21,06,49,10.30
2011,06,21,06,51,10.30
2011,06,21,06,52,10.40
2011,06,21,06,53,10.50
2011,06,21,06,54,10.60
2011,06,21,06,55,10.70
2011,06,21,06,57,10.70
2011,06,21,06,58,10.80
2011,06,21,06,59,10.90
2011,06,21,07,01,11.00
2011,06,21,07,02,11.10
2011,06,21,07,03,11.20
2011,06,21,07,05,11.30
2011,06,21,07,06,11.40
2011,06,21,07,07,11.60
2011,06,21,07,08,11.70
2011,06,21,07,10,11.80
2011,06,21,07,11,11.90
2011,06,21,07,12,12.00
2011,06,21,07,13,12.10
2011,06,21,07,15,12.10
2011,06,21,07,16,12.30
2011,06,21,07,17,12.30
2011,06,21,07,18,12.40
2011,06,21,07,20,12.50
2011,06,21,07,21,12.60
2011,06,21,07,22,12.70
2011,06,21,07,23,12.70
2011,06,21,07,25,12.80
2011,06,21,07,26,12.80
2011,06,21,07,27,12.80
2011,06,21,07,29,12.80
2011,06,21,07,31,12.90
2011,06,21,07,32,12.90
2011,06,21,07,34,13.10
2011,06,21,07,35,13.20
2011,06,21,07,36,13.30
2011,06,21,07,37,13.40
2011,06,21,07,39,13.50
2011,06,21,07,40,13.70
2011,06,21,07,41,13.80
2011,06,21,07,42,13.80
2011,06,21,07,44,13.90
2011,06,21,07,45,14.10
2011,06,21,07,46,14.10
2011,06,21,07,47,14.20
2011,06,21,07,48,14.20
2011,06,21,07,49,14.30
2011,06,21,07,51,14.40
2011,06,21,07,53,14.50
2011,06,21,07,54,14.60
2011,06,21,07,56,14.70
2011,06,21,07,58,14.70
2011,06,21,07,59,14.70
2011,06,21,08,00,14.70
2011,06,21,08,01,14.70
2011,06,21,08,03,14.70
2011,06,21,08,04,14.70
2011,06,21,08,06,14.70
2011,06,21,08,07,14.70
2011,06,21,08,08,14.70
2011,06,21,08,09,14.70
2011,06,21,08,11,14.70
2011,06,21,08,12,14.70
2011,06,21,08,13,14.60
2011,06,21,08,14,14.60
2011,06,21,08,16,14.60
2011,06,21,08,17,14.60
2011,06,21,08,18,14.50
2011,06,21,08,19,14.40
2011,06,21,08,21,14.40
2011,06,21,08,22,14.40
2011,06,21,08,23,14.40
2011,06,21,08,24,14.40
2011,06,21,08,26,14.40
2011,06,21,08,27,14.50
2011,06,21,08,28,14.50
2011,06,21,08,29,14.60
2011,06,21,08,31,14.70
2011,06,21,08,32,14.70
2011,06,21,08,33,14.80
2011,06,21,08,34,14.80
2011,06,21,08,36,14.90
2011,06,21,08,37,14.90
2011,06,21,08,38,14.90
2011,06,21,08,39,15.00
2011,06,21,08,40,15.10
2011,06,21,08,42,15.10
2011,06,21,08,43,15.10
2011,06,21,08,44,15.10
2011,06,21,08,47,15.10
2011,06,21,08,48,15.10
2011,06,21,08,49,15.10
2011,06,21,08,50,15.10
2011,06,21,08,52,15.10
2011,06,21,08,53,15.10
2011,06,21,08,54,15.10
2011,06,21,08,57,14.90
2011,06,21,08,58,14.90
2011,06,21,08,59,14.80
2011,06,21,09,02,14.70
2011,06,21,09,03,14.60
2011,06,21,09,04,14.60
2011,06,21,09,05,14.50
2011,06,21,09,07,14.60
2011,06,21,09,08,14.60
2011,06,21,09,09,14.70
2011,06,21,09,12,14.70
2011,06,21,09,13,14.80
2011,06,21,09,14,14.70
2011,06,21,09,15,14.70
2011,06,21,09,17,14.70
2011,06,21,09,18,14.60
2011,06,21,09,19,14.60
2011,06,21,09,21,14.60
2011,06,21,09,22,14.60
2011,06,21,09,23,14.70
2011,06,21,09,24,14.70
2011,06,21,09,26,14.80
2011,06,21,09,27,14.80
2011,06,21,09,28,14.90
2011,06,21,09,29,14.80
2011,06,21,09,30,14.90
2011,06,21,09,32,14.90
2011,06,21,09,33,15.00
2011,06,21,09,34,15.10
2011,06,21,09,36,15.10
2011,06,21,09,37,15.20
2011,06,21,09,38,15.20
2011,06,21,09,39,15.20
2011,06,21,09,40,15.30
2011,06,21,09,42,15.30
2011,06,21,09,43,15.40
2011,06,21,09,44,15.40
2011,06,21,09,45,15.40
2011,06,21,09,46,15.50
2011,06,21,09,47,15.60
2011,06,21,09,48,15.60
2011,06,21,09,49,15.70
2011,06,21,09,51,15.80
2011,06,21,09,53,15.80
2011,06,21,09,54,15.70
2011,06,21,09,55,15.70
2011,06,21,09,56,15.60
2011,06,21,09,58,15.40
2011,06,21,09,59,15.30
2011,06,21,10,00,15.30
2011,06,21,10,01,15.30
2011,06,21,10,03,15.30
2011,06,21,10,04,15.40
2011,06,21,10,05,15.60
2011,06,21,10,06,15.60
2011,06,21,10,07,15.70
2011,06,21,10,08,15.70
2011,06,21,10,09,15.70
2011,06,21,10,10,15.70
2011,06,21,10,11,15.70
2011,06,21,10,13,15.80
2011,06,21,10,14,15.80
2011,06,21,10,15,15.90
2011,06,21,10,16,16.10
2011,06,21,10,18,16.20
2011,06,21,10,19,16.30
2011,06,21,10,20,16.40
2011,06,21,10,22,16.40
2011,06,21,10,23,16.40
2011,06,21,10,24,16.40
2011,06,21,10,26,16.40
2011,06,21,10,27,16.50
2011,06,21,10,28,16.60
2011,06,21,10,29,16.70
2011,06,21,10,31,16.70
2011,06,21,10,32,16.80
2011,06,21,10,33,16.80
2011,06,21,10,34,16.90
2011,06,21,10,35,16.90
2011,06,21,10,37,16.90
2011,06,21,10,38,17.10
2011,06,21,10,39,17.20
2011,06,21,10,40,17.30
2011,06,21,10,42,17.40
2011,06,21,10,43,17.50
2011,06,21,10,44,17.70
2011,06,21,10,45,17.80
2011,06,21,10,47,17.80
2011,06,21,10,48,17.80
2011,06,21,10,49,17.90
2011,06,21,10,51,18.00
2011,06,21,10,52,18.10
2011,06,21,10,53,18.10
2011,06,21,10,55,18.10
2011,06,21,10,56,18.10
2011,06,21,10,57,18.10
2011,06,21,10,58,18.00
2011,06,21,10,59,17.90
2011,06,21,11,00,17.90
2011,06,21,11,01,17.80
2011,06,21,11,02,17.90
2011,06,21,11,03,18.00
2011,06,21,11,05,18.10
2011,06,21,11,06,18.30
2011,06,21,11,07,18.40
2011,06,21,11,09,18.40
2011,06,21,11,10,18.30
2011,06,21,11,11,18.20
2011,06,21,11,12,18.30
2011,06,21,11,13,18.30
2011,06,21,11,14,18.30
2011,06,21,11,15,18.30
2011,06,21,11,16,18.30
2011,06,21,11,18,18.30
2011,06,21,11,19,18.20
2011,06,21,11,20,18.10
2011,06,21,11,22,18.10
2011,06,21,11,23,18.00
2011,06,21,11,24,18.00
2011,06,21,11,25,18.10
2011,06,21,11,27,18.20
2011,06,21,11,28,18.30
2011,06,21,11,29,18.40
2011,06,21,11,30,18.60
2011,06,21,11,31,18.70
2011,06,21,11,33,18.70
2011,06,21,11,34,18.80
2011,06,21,11,35,18.80
2011,06,21,11,36,18.80
2011,06,21,11,38,18.80
2011,06,21,11,39,18.70
2011,06,21,11,40,18.70
2011,06,21,11,41,18.80
2011,06,21,11,43,18.80
2011,06,21,11,44,18.80
2011,06,21,11,45,18.80
2011,06,21,11,46,18.80
2011,06,21,11,48,18.90
2011,06,21,11,49,19.00
2011,06,21,11,50,19.10
2011,06,21,11,51,19.10
2011,06,21,11,52,19.10
2011,06,21,11,54,19.00
2011,06,21,11,55,19.00
2011,06,21,11,56,19.10
2011,06,21,11,57,19.20
2011,06,21,11,59,19.30
2011,06,21,12,00,19.30
2011,06,21,12,01,19.40
2011,06,21,12,02,19.50
2011,06,21,12,03,19.50
2011,06,21,12,05,19.50
2011,06,21,12,06,19.40
2011,06,21,12,07,19.40
2011,06,21,12,08,19.30
2011,06,21,12,09,19.30
2011,06,21,12,11,19.20
2011,06,21,12,12,19.20
2011,06,21,12,13,19.20
2011,06,21,12,14,19.30
2011,06,21,12,16,19.30
2011,06,21,12,17,19.40
2011,06,21,12,18,19.40
2011,06,21,12,19,19.50
2011,06,21,12,21,19.60
2011,06,21,12,22,19.70
2011,06,21,12,23,19.80
2011,06,21,12,24,19.80
2011,06,21,12,26,19.80
2011,06,21,12,27,19.70
2011,06,21,12,28,19.70
2011,06,21,12,30,19.70
2011,06,21,12,31,19.70
2011,06,21,12,32,19.80
2011,06,21,12,33,19.90
2011,06,21,12,34,19.90
2011,06,21,12,35,19.90
2011,06,21,12,36,19.90
2011,06,21,12,37,19.80
2011,06,21,12,38,19.70
2011,06,21,12,39,19.70
2011,06,21,12,40,19.60
2011,06,21,12,41,19.60
2011,06,21,12,42,19.60
2011,06,21,12,43,19.60
2011,06,21,12,44,19.60
2011,06,21,12,45,19.60
2011,06,21,12,46,19.80
2011,06,21,12,47,19.80
2011,06,21,12,48,19.90
2011,06,21,12,49,19.90
2011,06,21,12,50,19.90
2011,06,21,12,51,19.90
2011,06,21,12,52,19.90
2011,06,21,12,54,19.90
2011,06,21,12,55,19.90
2011,06,21,12,56,20.10
2011,06,21,12,57,20.10
2011,06,21,12,58,20.10
2011,06,21,12,59,20.10
2011,06,21,13,00,20.20
2011,06,21,13,01,20.20
2011,06,21,13,02,20.10
2011,06,21,13,03,20.10
2011,06,21,13,04,20.10
2011,06,21,13,05,20.10
2011,06,21,13,06,20.10
2011,06,21,13,07,20.20
2011,06,21,13,08,20.20
2011,06,21,13,09,20.20
2011,06,21,13,10,20.20
2011,06,21,13,11,20.20
2011,06,21,13,12,20.20
2011,06,21,13,13,20.20
2011,06,21,13,14,20.20
2011,06,21,13,15,20.20
2011,06,21,13,16,20.30
2011,06,21,13,17,20.40
2011,06,21,13,18,20.60
2011,06,21,13,19,20.70
2011,06,21,13,20,20.80
2011,06,21,13,21,20.90
2011,06,21,13,22,21.00
2011,06,21,13,23,21.10
2011,06,21,13,24,21.20
2011,06,21,13,25,21.20
2011,06,21,13,26,21.30
2011,06,21,13,27,21.30
2011,06,21,13,28,21.40
2011,06,21,13,29,21.50
2011,06,21,13,30,21.50
2011,06,21,13,31,21.70
2011,06,21,13,32,21.80
2011,06,21,13,33,21.80
2011,06,21,13,35,21.80
2011,06,21,13,36,21.80
2011,06,21,13,37,21.80
2011,06,21,13,38,21.80
2011,06,21,13,39,21.70
2011,06,21,13,40,21.70
2011,06,21,13,41,21.70
2011,06,21,13,42,21.60
2011,06,21,13,43,21.60
2011,06,21,13,44,21.60
2011,06,21,13,45,21.60
2011,06,21,13,46,21.40
2011,06,21,13,48,21.40
2011,06,21,13,49,21.30
2011,06,21,13,50,21.20
2011,06,21,13,52,21.00
2011,06,21,13,53,20.80
2011,06,21,13,54,20.80
2011,06,21,13,55,20.90
2011,06,21,13,57,21.10
2011,06,21,13,58,21.30
2011,06,21,13,59,21.50
2011,06,21,14,00,21.70
2011,06,21,14,02,21.80
2011,06,21,14,03,21.90
2011,06,21,14,04,21.90
2011,06,21,14,05,21.90
2011,06,21,14,07,21.90
2011,06,21,14,08,21.80
2011,06,21,14,09,21.70
2011,06,21,14,10,21.60
2011,06,21,14,11,21.40
2011,06,21,14,13,21.30
2011,06,21,14,14,21.20
2011,06,21,14,15,21.30
2011,06,21,14,16,21.30
2011,06,21,14,18,21.40
2011,06,21,14,19,21.40
2011,06,21,14,20,21.50
2011,06,21,14,21,21.50
2011,06,21,14,23,21.50
2011,06,21,14,24,21.30
2011,06,21,14,25,21.30
2011,06,21,14,26,21.20
2011,06,21,14,27,21.20
2011,06,21,14,29,21.20
2011,06,21,14,30,21.30
2011,06,21,14,31,21.30
2011,06,21,14,32,21.40
2011,06,21,14,34,21.30
2011,06,21,14,35,21.20
2011,06,21,14,36,21.20
2011,06,21,14,37,21.20
2011,06,21,14,38,21.10
2011,06,21,14,40,21.20
2011,06,21,14,41,21.20
2011,06,21,14,42,21.30
2011,06,21,14,43,21.30
2011,06,21,14,45,21.40
2011,06,21,14,46,21.30
2011,06,21,14,47,21.30
2011,06,21,14,48,21.30
2011,06,21,14,49,21.40
2011,06,21,14,51,21.50
2011,06,21,14,52,21.60
2011,06,21,14,53,21.60
2011,06,21,14,54,21.70
2011,06,21,14,55,21.70
2011,06,21,14,56,21.80
2011,06,21,14,57,21.80
2011,06,21,14,58,21.80
2011,06,21,14,59,21.80
2011,06,21,15,00,21.90
2011,06,21,15,02,21.90
2011,06,21,15,03,21.90
2011,06,21,15,04,22.00
2011,06,21,15,05,22.00
2011,06,21,15,07,22.10
2011,06,21,15,08,22.10
2011,06,21,15,09,22.10
2011,06,21,15,10,22.10
2011,06,21,15,12,22.20
2011,06,21,15,13,22.20
2011,06,21,15,14,22.20
2011,06,21,15,15,22.20
2011,06,21,15,17,22.20
2011,06,21,15,18,22.20
2011,06,21,15,19,22.30
2011,06,21,15,20,22.30
2011,06,21,15,22,22.30
2011,06,21,15,23,22.20
2011,06,21,15,24,22.20
2011,06,21,15,25,22.20
2011,06,21,15,27,22.20
2011,06,21,15,28,22.30
2011,06,21,15,29,22.40
2011,06,21,15,30,22.60
2011,06,21,15,31,22.60
2011,06,21,15,32,22.80
2011,06,21,15,33,22.90
2011,06,21,15,34,22.80
2011,06,21,15,35,22.80
2011,06,21,15,36,22.80
2011,06,21,15,37,22.70
2011,06,21,15,38,22.60
2011,06,21,15,39,22.50
2011,06,21,15,40,22.50
2011,06,21,15,41,22.40
2011,06,21,15,42,22.40
2011,06,21,15,43,22.30
2011,06,21,15,44,22.30
2011,06,21,15,45,22.20
2011,06,21,15,46,22.20
2011,06,21,15,47,22.10
2011,06,21,15,48,22.10
2011,06,21,15,49,22.20
2011,06,21,15,50,22.20
2011,06,21,15,51,22.20
2011,06,21,15,52,22.10
2011,06,21,15,53,22.10
2011,06,21,15,54,22.10
2011,06,21,15,55,22.10
2011,06,21,15,56,22.10
2011,06,21,15,57,22.10
2011,06,21,15,58,22.10
2011,06,21,15,59,22.00
2011,06,21,16,00,22.00
2011,06,21,16,01,22.10
2011,06,21,16,02,22.10
2011,06,21,16,03,22.10
2011,06,21,16,04,22.20
2011,06,21,16,05,22.20
2011,06,21,16,06,22.20
2011,06,21,16,07,22.20
2011,06,21,16,08,22.20
2011,06,21,16,09,22.20
2011,06,21,16,10,22.20
2011,06,21,16,11,22.20
2011,06,21,16,13,22.20
2011,06,21,16,14,22.20
2011,06,21,16,15,22.20
2011,06,21,16,16,22.20
2011,06,21,16,17,22.20
2011,06,21,16,18,22.20
2011,06,21,16,19,22.10
2011,06,21,16,20,22.10
2011,06,21,16,22,22.10
2011,06,21,16,23,22.10
2011,06,21,16,24,22.10
2011,06,21,16,26,22.00
2011,06,21,16,27,22.00
2011,06,21,16,28,22.00
2011,06,21,16,30,21.90
2011,06,21,16,31,21.80
2011,06,21,16,32,21.70
2011,06,21,16,33,21.70
2011,06,21,16,34,21.60
2011,06,21,16,35,21.60
2011,06,21,16,36,21.60
2011,06,21,16,37,21.60
2011,06,21,16,38,21.50
2011,06,21,16,39,21.40
2011,06,21,16,40,21.30
2011,06,21,16,41,21.30
2011,06,21,16,42,21.30
2011,06,21,16,43,21.30
2011,06,21,16,44,21.40
2011,06,21,16,45,21.50
2011,06,21,16,46,21.50
2011,06,21,16,47,21.50
2011,06,21,16,48,21.50
2011,06,21,16,49,21.40
2011,06,21,16,50,21.50
2011,06,21,16,51,21.60
2011,06,21,16,52,21.60
2011,06,21,16,53,21.70
2011,06,21,16,55,21.70
2011,06,21,16,56,21.80
2011,06,21,16,57,21.80
2011,06,21,16,58,21.90
2011,06,21,16,59,22.00
2011,06,21,17,00,22.10
2011,06,21,17,01,22.10
2011,06,21,17,02,22.20
2011,06,21,17,03,22.20
2011,06,21,17,04,22.20
2011,06,21,17,05,22.20
2011,06,21,17,06,22.30
2011,06,21,17,07,22.20
2011,06,21,17,08,22.30
2011,06,21,17,09,22.30
2011,06,21,17,10,22.30
2011,06,21,17,11,22.20
2011,06,21,17,12,22.20
2011,06,21,17,13,22.10
2011,06,21,17,14,22.00
2011,06,21,17,15,21.90
2011,06,21,17,16,21.90
2011,06,21,17,17,21.90
2011,06,21,17,18,21.90
2011,06,21,17,19,21.90
2011,06,21,17,20,21.90
2011,06,21,17,21,21.90
2011,06,21,17,23,21.90
2011,06,21,17,24,21.80
2011,06,21,17,25,21.70
2011,06,21,17,26,21.70
2011,06,21,17,27,21.60
2011,06,21,17,28,21.50
2011,06,21,17,29,21.40
2011,06,21,17,30,21.30
2011,06,21,17,31,21.20
2011,06,21,17,33,21.20
2011,06,21,17,34,21.20
2011,06,21,17,35,21.20
2011,06,21,17,37,21.20
2011,06,21,17,38,21.30
2011,06,21,17,39,21.30
2011,06,21,17,41,21.50
2011,06,21,17,43,21.60
2011,06,21,17,44,21.70
2011,06,21,17,45,21.80
2011,06,21,17,46,21.80
2011,06,21,17,47,21.90
2011,06,21,17,49,22.00
2011,06,21,17,51,22.10
2011,06,21,17,52,22.20
2011,06,21,17,54,22.20
2011,06,21,17,55,22.20
2011,06,21,17,56,22.20
2011,06,21,17,57,22.20
2011,06,21,17,58,22.30
2011,06,21,18,00,22.30
2011,06,21,18,01,22.40
2011,06,21,18,02,22.50
2011,06,21,18,03,22.60
2011,06,21,18,05,22.60
2011,06,21,18,06,22.70
2011,06,21,18,07,22.80
2011,06,21,18,08,22.80
2011,06,21,18,09,22.80
2011,06,21,18,11,22.70
2011,06,21,18,12,22.60
2011,06,21,18,13,22.60
2011,06,21,18,14,22.60
2011,06,21,18,16,22.60
2011,06,21,18,17,22.70
2011,06,21,18,18,22.70
2011,06,21,18,19,22.80
2011,06,21,18,22,22.80
2011,06,21,18,23,22.70
2011,06,21,18,24,22.70
2011,06,21,18,25,22.50
2011,06,21,18,27,22.40
2011,06,21,18,28,22.30
2011,06,21,18,29,22.20
2011,06,21,18,32,22.10
2011,06,21,18,33,21.90
2011,06,21,18,34,21.80
2011,06,21,18,35,21.80
2011,06,21,18,36,21.80
2011,06,21,18,38,21.70
2011,06,21,18,39,21.70
2011,06,21,18,40,21.60
2011,06,21,18,41,21.60
2011,06,21,18,43,21.50
2011,06,21,18,44,21.40
2011,06,21,18,45,21.40
2011,06,21,18,46,21.50
2011,06,21,18,47,21.40
2011,06,21,18,48,21.40
2011,06,21,18,50,21.30
2011,06,21,18,51,21.30
2011,06,21,18,52,21.30
2011,06,21,18,53,21.20
2011,06,21,18,54,21.10
2011,06,21,18,56,21.10
2011,06,21,18,57,20.90
2011,06,21,18,58,20.90
2011,06,21,18,59,20.90
2011,06,21,19,02,20.90
2011,06,21,19,03,20.90
2011,06,21,19,04,21.00
2011,06,21,19,05,21.10
2011,06,21,19,07,21.10
2011,06,21,19,08,21.00
2011,06,21,19,09,20.90
2011,06,21,19,10,20.80
2011,06,21,19,12,20.80
2011,06,21,19,13,20.70
2011,06,21,19,14,20.70
2011,06,21,19,17,20.80
2011,06,21,19,18,20.90
2011,06,21,19,19,20.90
2011,06,21,19,21,20.90
2011,06,21,19,22,20.80
2011,06,21,19,23,20.70
2011,06,21,19,25,20.70
2011,06,21,19,26,20.50
2011,06,21,19,27,20.40
2011,06,21,19,28,20.40
2011,06,21,19,30,20.40
2011,06,21,19,31,20.30
2011,06,21,19,32,20.30
2011,06,21,19,33,20.20
2011,06,21,19,34,20.20
2011,06,21,19,35,20.20
2011,06,21,19,36,20.20
2011,06,21,19,37,20.20
2011,06,21,19,38,20.20
2011,06,21,19,39,20.20
2011,06,21,19,40,20.20
2011,06,21,19,41,20.20
2011,06,21,19,42,20.20
2011,06,21,19,43,20.20
2011,06,21,19,44,20.20
2011,06,21,19,45,20.20
2011,06,21,19,46,20.20
2011,06,21,19,47,20.20
2011,06,21,19,48,20.30
2011,06,21,19,49,20.30
2011,06,21,19,50,20.30
2011,06,21,19,51,20.30
2011,06,21,19,52,20.30
2011,06,21,19,53,20.30
2011,06,21,19,54,20.40
2011,06,21,19,55,20.40
2011,06,21,19,56,20.40
2011,06,21,19,57,20.40
2011,06,21,19,58,20.40
2011,06,21,19,59,20.40
2011,06,21,20,00,20.40
2011,06,21,20,01,20.30
2011,06,21,20,02,20.20
2011,06,21,20,03,20.20
2011,06,21,20,04,20.20
2011,06,21,20,05,20.20
2011,06,21,20,06,20.20
2011,06,21,20,07,20.20
2011,06,21,20,08,20.10
2011,06,21,20,09,20.10
2011,06,21,20,10,20.10
2011,06,21,20,11,20.20
2011,06,21,20,12,20.20
2011,06,21,20,14,20.20
2011,06,21,20,15,20.20
2011,06,21,20,16,20.10
2011,06,21,20,17,20.10
2011,06,21,20,18,20.10
2011,06,21,20,19,20.00
2011,06,21,20,20,19.90
2011,06,21,20,21,19.90
2011,06,21,20,22,19.90
2011,06,21,20,23,19.90
2011,06,21,20,24,19.90
2011,06,21,20,25,19.90
2011,06,21,20,26,19.90
2011,06,21,20,27,19.90
2011,06,21,20,28,19.90
2011,06,21,20,29,19.90
2011,06,21,20,30,19.80
2011,06,21,20,31,19.80
2011,06,21,20,33,19.80
2011,06,21,20,34,19.80
2011,06,21,20,35,19.70
2011,06,21,20,36,19.70
2011,06,21,20,38,19.60
2011,06,21,20,39,19.50
2011,06,21,20,41,19.30
2011,06,21,20,43,19.30
2011,06,21,20,44,19.20
2011,06,21,20,45,19.20